This is the latest recevied weather packets stored in our database for station/object KC8YYF. If no packets are shown the sender has not sent any weather packets the latest 10 day(s).
| Time | Temp. | Humidity | Pressure | Rain* | Wind** | Luminosity | Snow |
|---|---|---|---|---|---|---|---|
| 1777876332 | 9.44° C | 72% | 1012.9 hPa | 0 mm | - | 0 W/m² | - |
| 1777876028 | 9.44° C | 72% | 1013.1 hPa | 0 mm | - | 0 W/m² | - |
| 1777875723 | 9.44° C | 71% | 1013.1 hPa | 0 mm | - | 0 W/m² | - |
| 1777875421 | 9.44° C | 76% | 1013.5 hPa | 0 mm | - | 0 W/m² | - |
| 1777875117 | 9.44° C | 76% | 1013.4 hPa | 0 mm | - | 0 W/m² | - |
| 1777874814 | 9.44° C | 74% | 1013.5 hPa | 0 mm | - | 0 W/m² | - |
| 1777874510 | 9.44° C | 72% | 1013.6 hPa | 0 mm | - | 0 W/m² | - |
| 1777874208 | 9.44° C | 72% | 1013.5 hPa | 0 mm | - | 0 W/m² | - |
| 1777873904 | 9.44° C | 72% | 1013.5 hPa | 0 mm | - | 0 W/m² | - |
| 1777873601 | 9.44° C | 71% | 1013.6 hPa | 0 mm | - | 0 W/m² | - |
| 1777873299 | 9.44° C | 73% | 1013.6 hPa | 0 mm | - | 0 W/m² | - |
| 1777872995 | 9.44° C | 73% | 1013.8 hPa | 0 mm | - | 0 W/m² | - |
| 1777872692 | 9.44° C | 72% | 1013.7 hPa | 0 mm | - | 0 W/m² | - |
| 1777872390 | 9.44° C | 74% | 1013.7 hPa | 0 mm | - | 0 W/m² | - |
| 1777872088 | 8.89° C | 76% | 1013.8 hPa | 0 mm | - | 0 W/m² | - |
| 1777871784 | 8.89° C | 75% | 1013.8 hPa | 0 mm | - | 0 W/m² | - |
| 1777871481 | 8.89° C | 77% | 1013.9 hPa | 0 mm | - | 0 W/m² | - |
| 1777871178 | 8.89° C | 75% | 1014 hPa | 0 mm | - | 0 W/m² | - |
| 1777870875 | 8.89° C | 76% | 1013.7 hPa | 0 mm | - | 0 W/m² | - |
| 1777870572 | 8.89° C | 74% | 1013.9 hPa | 0 mm | - | 0 W/m² | - |
| 1777870266 | 8.89° C | 74% | 1014 hPa | 0 mm | - | 0 W/m² | - |
| 1777869965 | 8.89° C | 76% | 1014 hPa | 0 mm | - | 0 W/m² | - |
| 1777869661 | 8.89° C | 75% | 1014.1 hPa | 0 mm | - | 0 W/m² | - |
| 1777869358 | 8.89° C | 75% | 1013.8 hPa | 0 mm | - | 0 W/m² | - |
| 1777869055 | 8.89° C | 75% | 1014 hPa | 0 mm | - | 0 W/m² | - |
* Rain latest hour (hover to see other rain measurements)
** Current wind speed in m/s (hover to see current wind gust speed)